Track FLOCK 3P 27 now! 10-day predictions FLOCK 3P 27 is classified as:
1 41963U 17008R 22138.78716641 .00066360 00000-0 15628-2 0 9990 2 41963 97.2784 209.7226 0004270 306.6693 53.4162 15.41698252292654